STARLINK-11288, 61002

Orbit data source: Space-Track

STARLINK-11288, 61002 is a payload satellite owned by SpaceX/Seattle (US) in LEO that was launched on Thu, 05 Sep 2024 UTC via an FALCON 9 launch vehicle from the Air Force Eastern Test Range (AFETR). Payload-class satellites include a variety of spacecraft equipped with specific instruments for various scientific and technological missions. These include communications satellites like Starlink; space stations such as the ISS; scientific satellites like the Hubble; Earth observation satellites from companies like Planet Labs, Umbra, and HawkEye 360; GPS; miniature CubeSats for education and research; and military/defense satellites.

Loading next visibility...
Identifier
61002, 2024-158N
Orbit
LEO
Country
Flag of USUS
Related business
Manufacturer
SpaceX/Seattle
Mission
Operational Commercial Communications
Bus & Motor
STARLINK V2MD, Unknown motor
Mass
960 kg wet, ~910 kg dry
Launch date (UTC)
2024-09-05 (1 year ago)
Launch vehicle
FALCON 9
Launch site
Air Force Eastern Test Range (AFETR)
Object type
Payload
Rocket body
Debris
Shape & HBR
Box + 2 Pan, 18.1 m
Radar Cross Section
36.964 m², Large (>1 m²)

Expand to show TLE details & history
Last TLE update: 15 hours ago

TLE from 15 hours ago
0 STARLINK-11288
1 61002U 24158N   26033.58821771 -.00001203  00000-0 -50733-5 0  9993
2 61002  53.1585  94.1460 0001106  91.0637 269.0507 15.69711362 82073
Epoch: 2026-02-02T14:07Z
TLE epoch observation values (Epoch: 2026-02-02T14:07:02.010Z)
Latitude
-0.00005°
Longitude
109.60623°
Altitude
360.65 km
Speed
7.694 km/s
True Right ascension
06h 16m 35s
True Declination
0° 00' 00"
Sunlit
Object was in full shadow at epoch
Visualization orbit readout
Latitude
Unknown
Longitude
Unknown
Altitude
Unknown
Speed
Unknown
Apparent Right ascension
Unknown
Apparent Declination
Unknown
Sunlit
N/A
Visualization observer readout
Local Sidereal Time
06:34:01
Azimuth
Unknown
Elevation
Unknown
Doppler factor
Unknown
Orbital elements
Apogee altitude
360.729 km
Perigee altitude
359.239 km
Semi-major axis
6,738.121 km
Eccentricity
0.00011
Inclination
53.1585°
RAAN
94.146°
Arg. of periapsis
91.0637°
True anomaly
269.03803°
Mean anomaly
269.0507°
Eccentric anomaly
269.04436°
Mean motion
3.92405 °/min
Orbital period
91.74 mins
BSTAR
-0.0000050733
Loading maneuver chart data...
Computing Atmospheric mass density...
Loading historical data...
Loading historical data...
Loading historical data...
Loading historical data...
Loading historical data...
Loading historical data...
Loading historical data...

Documentation

Showing up to 5 results
|